Date String (YYYY-MM-DD hh:mm:ss) UTC,Instrument flags,absolute air pressure of the measurement (hPa),sample flow rate (lpm),inlet stack bypass flow (lpm),air temperature of the measurement (°C),ambient temperature measured by the external sensor (°C),aerosol sample conditioner tube jacket temperature (°C),OPC LED temperature (°C),internal box temperature (°C),relative humidity of the measurement (%),span deviation,mass concentration of particles derived from Lorenz-Mie calculation of OPC scattering (μg/m³),mass concentration of particles derived from Lorenz-Mie calculation of OPC scattering (μg/m³),mass concentration of particles derived from Lorenz-Mie calculation of OPC scattering (μg/m³)
DateTimeUTC,F1_M11,P_M11,Q1_M11,Q2_M11,T1_M11,T2_M11,T3_M11,T4_M11,T5_M11,U1_M11,ZSPAN_M11,X0_M11,X2_M11,X1_M11
2024-04-12 02:00:00,SystemResetWarning,0829.7,4.99,000.00,026.2,025.7,000.0,034.4,028.1,011.8,0000.0,0024.37,0005.98,0003.13
2024-04-12 02:01:00,SystemResetWarning,0829.7,5.00,000.00,026.2,025.7,000.0,034.4,028.1,011.7,0000.0,0023.96,0005.89,0003.13
2024-04-12 02:02:00,SystemResetWarning,0829.7,5.00,000.00,026.2,025.7,000.0,034.4,028.2,011.7,0000.0,0024.16,0005.83,0003.12
2024-04-12 02:03:00,SystemResetWarning,0829.7,5.00,000.00,026.3,025.8,000.0,034.5,028.2,011.7,0000.0,0024.16,0005.78,0003.13
2024-04-12 02:04:00,SystemResetWarning,0829.7,5.00,000.00,026.3,025.8,000.0,034.5,028.2,011.7,0000.0,0024.78,0005.83,0003.14
2024-04-12 02:05:00,SystemResetWarning,0829.7,5.00,000.00,026.3,025.8,000.0,034.5,028.2,011.6,0000.0,0023.60,0005.76,0003.14
2024-04-12 02:06:00,SystemResetWarning,0829.7,5.00,000.00,026.4,025.9,000.0,034.6,028.3,011.7,0000.0,0022.48,0005.71,0003.15
2024-04-12 02:07:00,SystemResetWarning,0829.7,5.00,000.00,026.4,025.9,000.0,034.6,028.3,011.6,0000.0,0022.96,0005.73,0003.16
2024-04-12 02:08:00,SystemResetWarning,0829.7,4.99,000.00,026.4,025.9,000.0,034.6,028.3,011.6,0000.0,0022.27,0005.71,0003.16
2024-04-12 02:09:00,SystemResetWarning,0829.8,5.00,000.00,026.4,025.9,000.0,034.7,028.4,011.6,0000.0,0021.38,0005.59,0003.15
2024-04-12 02:10:00,SystemResetWarning,0829.8,5.00,000.00,026.5,025.7,000.0,034.7,028.2,011.6,0000.0,0021.55,0005.58,0003.16
2024-04-12 02:11:00,SystemResetWarning,0829.7,5.00,000.00,026.1,023.4,000.0,034.7,026.9,011.8,0000.0,0022.57,0005.65,0003.16
2024-04-12 02:12:00,SystemResetWarning,0829.7,5.01,000.00,025.6,022.2,000.0,034.7,026.2,012.1,0000.0,0023.59,0005.71,0003.16
2024-04-12 02:13:00,SystemResetWarning,0829.7,5.00,000.00,025.4,022.4,000.0,034.6,026.2,012.3,0000.0,0025.70,0005.74,0003.16
2024-04-12 02:14:00,SystemResetWarning,0829.7,4.99,000.00,025.4,022.8,000.0,034.4,026.5,012.3,0000.0,0025.44,0005.76,0003.17
2024-04-12 02:15:00,SystemResetWarning,0829.8,5.01,000.00,025.4,023.2,000.0,034.3,026.8,012.3,0000.0,0027.37,0005.82,0003.18
2024-04-12 02:16:00,SystemResetWarning,0829.8,5.00,000.00,025.4,023.5,000.0,034.2,027.0,012.3,0000.0,0029.16,0005.89,0003.19
2024-04-12 02:17:00,SystemResetWarning,0829.8,4.99,000.00,025.4,023.8,000.0,034.2,027.1,012.3,0000.0,0030.08,0005.90,0003.20
2024-04-12 02:18:00,SystemResetWarning,0829.8,5.00,000.00,025.5,024.1,000.0,034.1,027.2,012.3,0000.0,0030.39,0005.88,0003.19
2024-04-12 02:19:00,SystemResetWarning,0829.8,5.00,000.00,025.5,024.3,000.0,034.1,027.3,012.2,0000.0,0031.00,0006.00,0003.19
2024-04-12 02:20:00,SystemResetWarning,0829.8,5.00,000.00,025.5,024.5,000.0,034.1,027.4,012.3,0000.0,0031.98,0006.07,0003.20
2024-04-12 02:21:00,SystemResetWarning,0829.8,5.00,000.00,025.6,024.7,000.0,034.1,027.5,012.3,0000.0,0031.69,0006.12,0003.22
2024-04-12 02:22:00,SystemResetWarning,0829.9,5.00,000.00,025.6,024.8,000.0,034.1,027.5,012.3,0000.0,0032.18,0006.13,0003.24
2024-04-12 02:23:00,SystemResetWarning,0829.9,5.00,000.00,025.7,025.0,000.0,034.1,027.6,012.3,0000.0,0032.48,0006.12,0003.23
2024-04-12 02:24:00,SystemResetWarning,0829.9,4.99,000.00,025.7,025.0,000.0,034.1,027.6,012.3,0000.0,0030.41,0006.10,0003.25
2024-04-12 02:25:00,SystemResetWarning,0829.9,5.00,000.00,025.8,025.1,000.0,034.1,027.7,012.6,0000.0,0030.32,0006.08,0003.26
2024-04-12 02:26:00,SystemResetWarning,0830.0,4.99,000.00,025.8,025.2,000.0,034.1,027.7,012.7,0000.0,0026.96,0006.00,0003.26
2024-04-12 02:27:00,SystemResetWarning,0829.9,5.00,000.00,025.8,025.2,000.0,034.2,027.8,012.7,0000.0,0025.27,0005.97,0003.27
2024-04-12 02:28:00,SystemResetWarning,0830.0,5.00,000.00,025.9,025.3,000.0,034.2,027.8,012.6,0000.0,0025.37,0006.04,0003.30
2024-04-12 02:29:00,SystemResetWarning,0829.9,5.00,000.00,025.9,025.3,000.0,034.2,027.8,012.7,0000.0,0024.96,0006.08,0003.32
2024-04-12 02:30:00,SystemResetWarning,0830.0,5.00,000.00,025.9,025.4,000.0,034.2,027.9,012.7,0000.0,0024.29,0006.01,0003.34
2024-04-12 02:31:00,SystemResetWarning,0829.9,5.00,000.00,026.0,025.4,000.0,034.2,027.9,012.6,0000.0,0022.94,0006.03,0003.37
2024-04-12 02:32:00,SystemResetWarning,0829.9,5.00,000.00,026.0,025.4,000.0,034.3,027.9,012.3,0000.0,0023.26,0006.01,0003.38
2024-04-12 02:33:00,SystemResetWarning,0830.0,5.00,000.00,026.0,025.5,000.0,034.3,027.9,012.6,0000.0,0022.59,0005.97,0003.39
2024-04-12 02:34:00,SystemResetWarning,0830.0,4.99,000.00,026.1,025.5,000.0,034.3,028.0,012.8,0000.0,0022.08,0006.04,0003.42
2024-04-12 02:35:00,SystemResetWarning,0830.0,5.00,000.00,026.1,025.5,000.0,034.3,028.0,012.8,0000.0,0023.18,0006.04,0003.44
2024-04-12 02:36:00,SystemResetWarning,0830.0,5.00,000.00,026.1,025.5,000.0,034.4,028.0,012.5,0000.0,0023.02,0006.08,0003.45
2024-04-12 02:37:00,SystemResetWarning,0830.0,5.00,000.00,026.1,025.5,000.0,034.4,028.0,012.3,0000.0,0023.70,0006.12,0003.46
2024-04-12 02:38:00,SystemResetWarning,0830.0,5.00,000.00,026.1,025.5,000.0,034.4,028.0,012.6,0000.0,0024.55,0006.12,0003.47
2024-04-12 02:39:00,SystemResetWarning,0830.0,5.00,000.00,026.1,025.5,000.0,034.4,028.0,012.4,0000.0,0023.71,0006.07,0003.46
2024-04-12 02:40:00,SystemResetWarning,0830.0,5.00,000.00,026.2,025.6,000.0,034.5,028.1,012.7,0000.0,0022.43,0006.04,0003.45
2024-04-12 02:41:00,SystemResetWarning,0830.0,5.01,000.00,026.2,025.6,000.0,034.5,028.1,012.5,0000.0,0022.98,0006.05,0003.45
2024-04-12 02:42:00,SystemResetWarning,0830.0,5.01,000.00,026.2,025.6,000.0,034.5,028.1,012.7,0000.0,0023.27,0005.98,0003.44
2024-04-12 02:43:00,SystemResetWarning,0830.0,5.01,000.00,026.2,025.6,000.0,034.5,028.1,012.5,0000.0,0022.52,0005.97,0003.43
2024-04-12 02:44:00,SystemResetWarning,0830.0,5.00,000.00,026.2,025.6,000.0,034.5,028.1,012.4,0000.0,0022.15,0006.01,0003.42
2024-04-12 02:45:00,SystemResetWarning,0830.0,4.99,000.00,026.2,025.6,000.0,034.5,028.1,012.6,0000.0,0022.46,0006.00,0003.43
2024-04-12 02:46:00,SystemResetWarning,0830.1,5.00,000.00,026.3,025.6,000.0,034.6,028.1,012.8,0000.0,0022.22,0006.05,0003.44
2024-04-12 02:47:00,SystemResetWarning,0830.1,4.99,000.00,026.3,025.6,000.0,034.6,028.1,012.8,0000.0,0021.48,0006.09,0003.44
2024-04-12 02:48:00,SystemResetWarning,0830.1,5.00,000.00,026.3,025.6,000.0,034.6,028.2,012.9,0000.0,0020.88,0006.04,0003.46
2024-04-12 02:49:00,SystemResetWarning,0830.1,5.01,000.00,026.3,025.6,000.0,034.6,028.2,012.8,0000.0,0020.31,0006.04,0003.46
2024-04-12 02:50:00,SystemResetWarning,0830.2,5.01,000.00,026.3,025.7,000.0,034.6,028.2,012.7,0000.0,0020.94,0006.04,0003.47
2024-04-12 02:51:00,SystemResetWarning,0830.2,5.00,000.00,026.3,025.7,000.0,034.7,028.2,012.7,0000.0,0021.21,0006.03,0003.47
2024-04-12 02:52:00,SystemResetWarning,0830.2,5.00,000.00,026.3,025.7,000.0,034.7,028.2,012.7,0000.0,0020.67,0006.01,0003.48
2024-04-12 02:53:00,SystemResetWarning,0830.2,4.99,000.00,026.3,025.7,000.0,034.7,028.2,012.7,0000.0,0020.21,0006.01,0003.50
2024-04-12 02:54:00,SystemResetWarning,0830.3,4.99,000.00,026.3,025.7,000.0,034.7,028.2,012.7,0000.0,0020.14,0005.94,0003.51
2024-04-12 02:55:00,SystemResetWarning,0830.3,5.00,000.00,026.3,025.7,000.0,034.7,028.2,012.8,0000.0,0020.01,0005.92,0003.53
2024-04-12 02:56:00,SystemResetWarning,0830.3,5.00,000.00,026.4,025.7,000.0,034.7,028.2,012.7,0000.0,0018.57,0005.81,0003.52
2024-04-12 02:57:00,SystemResetWarning,0830.2,5.00,000.00,026.4,025.7,000.0,034.7,028.2,012.6,0000.0,0017.51,0005.72,0003.52
2024-04-12 02:58:00,SystemResetWarning,0830.2,5.00,000.00,026.4,025.7,000.0,034.7,028.2,012.7,0000.0,0017.20,0005.62,0003.52
2024-04-12 02:59:00,SystemResetWarning,0830.3,5.01,000.00,026.4,025.7,000.0,034.7,028.2,012.7,0000.0,0017.54,0005.54,0003.51
